Location: ????? ???????
(25.7275°N, 32.5929°E)
Time: 11:34:22
(UTC+00:00)

Meteor 1-19 Rocket - Pass Details

Date: 02 March 2021
Orbit: 807 x 928 km, 81.2° (Epoch: 15 April)

Event Time Altitude Azimuth Distance (km) Brightness Sun altitude
Rises 17:11:46 0° 350° (N) 3,527 7.6 -18.8°
Reaches altitude 10° 17:14:16 10° 349° (N) 2,568 6.8 -19.3°
Maximum altitude 17:20:06 76° 265° (W) 902 4.4 -20.6°
Drops below altitude 10° 17:25:43 10° 180° (S) 2,475 6.6 -21.9°
Sets 17:28:05 0° 178° (S) 3,391 7.3 -22.4°
